Regional Weather Roundup
Issued by NWS New Orleans/Baton Rouge, LA

Home | Current Version | Previous Version | Graphics & Text | Print | Product List | Glossary On
Versions: 1 2 3 4 5 6 7 8 9 10 11 12 13 14 15 16 17 18 19 20 21 22 23 24 25 26 27 28 29 30 31 32 33 34 35 36 37 38 39 40 41 42 43 44 45 46 47 48 49 50
915
ASUS44 KLIX 201201
RWRLIX
NEW ORLEANS REGIONAL WEATHER ROUNDUP
NATIONAL WEATHER SERVICE NEW ORLEANS LA
600 AM CST THU NOV 20 2014

NOTE: "FAIR" INDICATES FEW OR NO CLOUDS BELOW 12,000 FEET WITH NO
      SIGNIFICANT WEATHER AND/OR OBSTRUCTIONS TO VISIBILITY.
      SKY/WX - SKY CONDITION AND SIGNIFICANT WEATHER.
      TMP - AIR TEMPERATURE.     DP    - DEWPOINT TEMPERATURE.
      RH  - RELATIVE HUMIDITY.   PRES  - PRESSURE.
      HI  - HEAT INDEX.          WCI   - WIND CHILL INDEX.

*  THESE STATIONS ARE NOT NWS OR FAA STATIONS AND ARE NOT UNDER
   NWS QUALITY CONTROL.

LAZ038-040-048-061>063-065>067-069-201300-
SOUTHEAST LOUISIANA

CITY           SKY/WX    TMP DP  RH WIND       PRES   REMARKS
N.O. AUDUBON     N/A     50  45  81 MISG        N/A
6HR MIN TEMP:  49; 6HR MAX TEMP:  52;

N.O. INTL ARPT PTCLDY    45  41  86 SE3       30.26R
6HR MIN TEMP:  44; 6HR MAX TEMP:  49;

N.O. LAKEFRONT CLEAR     48  43  82 S7        30.27R
6HR MIN TEMP:  46; 6HR MAX TEMP:  49;

N.O. DOWNTOWN*   N/A     54  43  66 SE10      30.26S
6HR MIN TEMP:  52; 6HR MAX TEMP:  54;

SLIDELL        PTCLDY    33  30  88 N5        30.27R WCI  29
6HR MIN TEMP:  33; 6HR MAX TEMP:  37;

BATON ROUGE    PTCLDY    40  38  93 NE3       30.25S
6HR MIN TEMP:  37; 6HR MAX TEMP:  43;

BOOTHVILLE     CLEAR     52  47  83 CALM      30.28R
6HR MIN TEMP:  51; 6HR MAX TEMP:  53;

BELLE CHASSE   PTCLDY    39  36  89 CALM      30.26S
6HR MIN TEMP:  39; 6HR MAX TEMP:  47;

BOGALUSA*        N/A     34  32  91 CALM      30.29R
6HR MIN TEMP:  34; 6HR MAX TEMP:  37;

NEW ROADS*       N/A     41  40  95 E3        30.25S
6HR MIN TEMP:  39; 6HR MAX TEMP:  45;

GONZALES*      NOT AVBL
HAMMOND*       PTCLDY    36  34  93 CALM      30.28S
HOUMA*         CLEAR     41  39  93 CALM      30.26R
PORT FOURCHON* NOT AVBL

$$

MSZ070-080>082-201300-
SOUTHERN MISSISSIPPI

CITY           SKY/WX    TMP DP  RH WIND       PRES   REMARKS
MCCOMB         CLEAR     38  36  92 CALM      30.25S
6HR MIN TEMP:  37; 6HR MAX TEMP:  40;

GULFPORT       CLEAR     35  33  92 CALM      30.27R
6HR MIN TEMP:  35; 6HR MAX TEMP:  37;

BILOXI         NOT AVBL
PASCAGOULA     CLEAR     29  28  96 CALM      30.28R
6HR MIN TEMP:  28; 6HR MAX TEMP:  30;


$$

COASTAL OBSERVATIONS
LAKE AND NEARSHORE STATIONS

STATION/POSITION TIME  TEMP    WIND        PRES    WAVE
                       AIR SEA DIR/SP/G            HT/PER
                 (UTC) (F)     (DEG/KT/KT) (MB)    (FT/S)
PASCAGOULA       1100   40     350/  3/  3 1024.6
WAVELAND YACHT   1100   46      20/  2/  3 1024.0
GRAND ISLE       1100   56 57   CALM  /  1 1025.0
SOUTHWEST PASS   1100   58 72              1025.0
NEW CANAL        1100   48 52  170/  3/  4 1024.9
SHELL BEACH      1100   51 48  140/  6/  7 1024.5

OFFSHORE STATIONS

STATION/POSITION TIME  TEMP    WIND        PRES    WAVE
                       AIR SEA DIR/SP/G            HT/PER
                 (UTC) (F)     (DEG/KT/KT) (MB)    (FT/S)
64 S DAUPHIN ISL 1112   60 72  190/  2/  4 1025.8    1/ 6

$$




USA.gov is the U.S. government's official web portal to all federal, state and local government web resources and services.